Weather History for Marshfield, MA

Change the Weather History Date:

Saturday, April 20, 2013

  Actual Average (KPYM) Record (KPYM)
Temperature  
Mean Temperature 57 °F -  
Max Temperature 66 °F 57 °F 89 °F (1976)
Min Temperature 48 °F 35 °F 21 °F (1970)
Degree Days  
Heating Degree Days 8    
Growing Degree Days 7 (Base 50)    
Moisture  
Dew Point 44 °F    
Average Humidity 68    
Maximum Humidity 100    
Minimum Humidity 36    
Precipitation  
Precipitation 0.34 in - - ()
Sea Level Pressure  
Sea Level Pressure 29.88 in    
Wind  
Wind Speed 11 mph (WSW)    
Max Wind Speed 20 mph    
Max Gust Speed 41 mph    
Visibility 9 miles    
Events Rain    
Averages and records for this station are not official NWS values.
T = Trace of Precipitation, MM = Missing Value Source: NWS Daily Summary

Daily Weather History Graph

Daily Weather History Graph

Search for Another Location

Airport:

Trip Planner

Search our weather history database for the weather conditions in past years. The results will help you decide how hot, cold, wet, or windy it might be!

Date:

Astronomy

Apr. 20, 2013 Rise Set
Actual Time 5:53 AM EDT 7:29 PM EDT
Civil Twilight 5:24 AM EDT 7:59 PM EDT
Nautical Twilight 4:48 AM EDT 8:35 PM EDT
Astronomical Twilight 4:10 AM EDT 9:13 PM EDT
Moon 2:05 PM EDT (4/20) 2:47 AM EDT (4/20)
Length of Visible Light 14h 34m
Length of Day
13h 35m
Waxing Gibbous, 71% of the Moon is Illuminated
Apr 20
Waxing Gibbous
Apr 25
Full
May 2
Last Quarter
May 9
New
May 18
First Quarter

Hourly Weather History & Observations

Time (EDT) Temp. Dew Point Humidity Pressure Visibility Wind Dir Wind Speed Gust Speed Precip Events Conditions
12:15 AM 66.2 °F 64.4 °F 94% 29.72 in 2.5 mi South 17.3 mph 41.4 mph N/A   Light Drizzle
12:35 AM 66.2 °F 64.4 °F 94% 29.72 in 7.0 mi South 19.6 mph 35.7 mph N/A   Overcast
12:55 AM 66.2 °F 64.4 °F 94% 29.71 in 4.0 mi South 16.1 mph 28.8 mph 0.02 in   Light Drizzle
1:15 AM 66.2 °F 64.4 °F 94% 29.70 in 4.0 mi SSW 18.4 mph 32.2 mph N/A Rain Light Rain
1:35 AM 66.2 °F 64.4 °F 94% 29.70 in 7.0 mi SSW 11.5 mph 32.2 mph N/A Rain Light Rain
1:55 AM 64.4 °F 62.6 °F 94% 29.70 in 10.0 mi SSW 11.5 mph 26.5 mph 0.01 in Rain Light Rain
2:35 AM 64.4 °F 62.6 °F 94% 29.66 in 5.0 mi SSW 10.4 mph 24.2 mph 0.02 in Rain Light Rain
2:55 AM 62.6 °F 60.8 °F 94% 29.67 in 10.0 mi South 10.4 mph 21.9 mph 0.03 in   Overcast
3:15 AM 62.6 °F 60.8 °F 94% 29.66 in 10.0 mi South 11.5 mph 19.6 mph N/A   Overcast
3:35 AM 62.6 °F 60.8 °F 94% 29.65 in 10.0 mi South 10.4 mph 23.0 mph N/A   Light Drizzle
3:55 AM 62.6 °F 60.8 °F 94% 29.65 in 10.0 mi South 12.7 mph 23.0 mph N/A   Overcast
4:15 AM 62.6 °F 60.8 °F 94% 29.65 in 8.0 mi South 12.7 mph 23.0 mph 0.01 in Rain Light Rain
4:35 AM 62.6 °F 60.8 °F 94% 29.66 in 10.0 mi South 13.8 mph 24.2 mph 0.01 in Rain Light Rain
5:15 AM 60.8 °F 59.0 °F 94% 29.67 in 5.0 mi SSW 16.1 mph 25.3 mph 0.01 in Rain Rain
5:35 AM 60.8 °F 59.0 °F 94% 29.67 in 7.0 mi SSW 11.5 mph 23.0 mph 0.02 in Rain Light Rain
5:55 AM 60.8 °F 57.2 °F 88% 29.68 in 5.0 mi South 10.4 mph 20.7 mph 0.03 in   Light Drizzle
6:15 AM 59.0 °F 57.2 °F 94% 29.68 in 3.0 mi South 9.2 mph - 0.02 in Rain Rain
6:35 AM 59.0 °F 57.2 °F 94% 29.70 in 5.0 mi SSW 9.2 mph 17.3 mph 0.05 in Rain Light Rain
6:55 AM 57.2 °F 55.4 °F 94% 29.71 in 3.0 mi West 5.8 mph - 0.09 in Rain Rain
7:15 AM 55.4 °F 53.6 °F 94% 29.74 in 5.0 mi West 4.6 mph - 0.01 in Rain Rain
7:35 AM 53.6 °F 53.6 °F 100% 29.76 in 3.0 mi West 5.8 mph - 0.05 in Rain Rain
8:15 AM 51.8 °F 48.2 °F 88% 29.79 in 3.0 mi WNW 10.4 mph 16.1 mph 0.04 in Rain Rain
8:35 AM 50.0 °F 48.2 °F 94% 29.79 in 5.0 mi West 11.5 mph - 0.08 in Rain Light Rain
8:55 AM 48.2 °F 46.4 °F 93% 29.81 in 9.0 mi WNW 10.4 mph 18.4 mph 0.09 in Rain Light Rain
9:15 AM 48.2 °F 46.4 °F 93% 29.81 in 10.0 mi WNW 8.1 mph 16.1 mph 0.01 in Rain Light Rain
9:35 AM 48.2 °F 46.4 °F 93% 29.83 in 10.0 mi West 6.9 mph - 0.01 in Rain Light Rain
9:55 AM 48.2 °F 46.4 °F 93% 29.84 in 10.0 mi West 6.9 mph - 0.01 in   Scattered Clouds
10:15 AM 50.0 °F 46.4 °F 87% 29.86 in 10.0 mi West 5.8 mph - N/A   Partly Cloudy
10:35 AM 50.0 °F 46.4 °F 87% 29.87 in 10.0 mi West 6.9 mph - N/A   Mostly Cloudy
10:55 AM 51.8 °F 44.6 °F 76% 29.88 in 10.0 mi WSW 4.6 mph - N/A   Mostly Cloudy
11:15 AM 51.8 °F 42.8 °F 71% 29.89 in 10.0 mi West 8.1 mph 17.3 mph N/A   Mostly Cloudy
11:35 AM 51.8 °F 41.0 °F 67% 29.89 in 10.0 mi WSW 8.1 mph - N/A   Mostly Cloudy
11:55 AM 51.8 °F 39.2 °F 62% 29.89 in 10.0 mi West 8.1 mph - N/A   Mostly Cloudy
12:15 PM 53.6 °F 41.0 °F 62% 29.89 in 10.0 mi West 6.9 mph - N/A   Scattered Clouds
12:35 PM 53.6 °F 41.0 °F 62% 29.89 in 10.0 mi SW 9.2 mph - N/A   Scattered Clouds
12:55 PM 55.4 °F 39.2 °F 54% 29.89 in 10.0 mi WSW 9.2 mph 17.3 mph N/A   Scattered Clouds
1:15 PM 55.4 °F 37.4 °F 51% 29.89 in 10.0 mi WSW 9.2 mph 20.7 mph N/A   Partly Cloudy
1:35 PM 55.4 °F 39.2 °F 54% 29.89 in 10.0 mi WSW 8.1 mph - N/A   Scattered Clouds
1:55 PM 57.2 °F 37.4 °F 48% 29.89 in 10.0 mi WSW 6.9 mph - N/A   Partly Cloudy
2:15 PM 57.2 °F 37.4 °F 48% 29.89 in 10.0 mi West 10.4 mph 16.1 mph N/A   Scattered Clouds
2:35 PM 57.2 °F 35.6 °F 44% 29.90 in 10.0 mi WSW 11.5 mph 17.3 mph N/A   Partly Cloudy
2:55 PM 57.2 °F 35.6 °F 44% 29.90 in 10.0 mi West 10.4 mph 17.3 mph N/A   Clear
3:15 PM 57.2 °F 35.6 °F 44% 29.91 in 10.0 mi WSW 11.5 mph 17.3 mph N/A   Partly Cloudy
3:35 PM 57.2 °F 35.6 °F 44% 29.91 in 10.0 mi SW 6.9 mph - N/A   Partly Cloudy
3:55 PM 60.8 °F 35.6 °F 39% 29.92 in 10.0 mi West 13.8 mph 17.3 mph N/A   Mostly Cloudy
4:15 PM 59.0 °F 33.8 °F 39% 29.92 in 10.0 mi West 4.6 mph 16.1 mph N/A   Partly Cloudy
4:35 PM 60.8 °F 33.8 °F 36% 29.93 in 10.0 mi West 6.9 mph - N/A   Clear
4:55 PM 59.0 °F 33.8 °F 39% 29.95 in 10.0 mi West 5.8 mph - N/A   Clear
5:15 PM 57.2 °F 33.8 °F 41% 29.95 in 10.0 mi West 8.1 mph - N/A   Clear
5:35 PM 57.2 °F 32.0 °F 38% 29.97 in 10.0 mi West 6.9 mph - N/A   Clear
5:55 PM 57.2 °F 32.0 °F 38% 29.98 in 10.0 mi West 9.2 mph 18.4 mph N/A   Clear
6:15 PM 55.4 °F 32.0 °F 41% 29.99 in 10.0 mi West 6.9 mph - N/A   Clear
6:35 PM 55.4 °F 32.0 °F 41% 30.00 in 10.0 mi West 6.9 mph - N/A   Clear
6:55 PM 55.4 °F 32.0 °F 41% 30.01 in 10.0 mi West 3.5 mph - N/A   Clear
7:15 PM 55.4 °F 32.0 °F 41% 30.02 in 10.0 mi Calm Calm - N/A   Clear
7:35 PM 53.6 °F 33.8 °F 47% 30.03 in 10.0 mi Calm Calm - N/A   Clear
7:55 PM 51.8 °F 33.8 °F 50% 30.04 in 10.0 mi Calm Calm - N/A   Clear
8:15 PM 48.2 °F 35.6 °F 62% 30.06 in 10.0 mi Calm Calm - N/A   Clear
8:35 PM 48.2 °F 35.6 °F 62% 30.08 in 10.0 mi Calm Calm - N/A   Clear
8:55 PM 48.2 °F 35.6 °F 62% 30.10 in 10.0 mi NW 3.5 mph - N/A   Clear
9:15 PM 51.8 °F 32.0 °F 47% 30.12 in 10.0 mi WNW 4.6 mph - N/A   Clear
9:35 PM 51.8 °F 32.0 °F 47% 30.13 in 10.0 mi NW 6.9 mph - N/A   Clear
9:55 PM 51.8 °F 30.2 °F 44% 30.14 in 10.0 mi NW 6.9 mph - N/A   Clear
10:15 PM 51.8 °F 30.2 °F 44% 30.15 in 10.0 mi WNW 6.9 mph - N/A   Clear
10:35 PM 50.0 °F 30.2 °F 47% 30.16 in 10.0 mi WNW 10.4 mph - N/A   Clear
10:55 PM 50.0 °F 30.2 °F 47% 30.17 in 10.0 mi WNW 4.6 mph - N/A   Clear
11:15 PM 48.2 °F 28.4 °F 46% 30.18 in 10.0 mi WNW 6.9 mph - N/A   Clear
11:35 PM 48.2 °F 28.4 °F 46% 30.20 in 10.0 mi WNW 6.9 mph - N/A   Clear
11:55 PM 48.2 °F 28.4 °F 46% 30.21 in 10.0 mi West 4.6 mph - N/A   Clear